| time (UTC) | temp F | wind direction | speed MPH | gust MPH | rain 1hr in | rain 24hr in | rain mn in | humidity % | barometer mb |
| 20260507060058 | 58 | 325 | 6.0 | 11.0 | 0.00 | 0.06 | 0.00 | 89 | 1015.1 |
| 20260507055103 | 58 | 322 | 6.0 | 11.0 | 0.00 | 0.06 | 0.00 | 89 | 1015.0 |
| 20260507054039 | 59 | 336 | 6.0 | 11.0 | 0.00 | 0.06 | 0.00 | 90 | 1015.2 |
| 20260507053008 | 59 | 313 | 5.0 | 8.0 | 0.00 | 0.06 | 0.00 | 89 | 1015.6 |
| 20260507052012 | 59 | 331 | 5.0 | 9.0 | 0.00 | 0.06 | 0.00 | 89 | 1015.3 |
| 20260507051011 | 59 | 333 | 5.0 | 9.0 | 0.00 | 0.06 | 0.00 | 89 | 1015.3 |
| 20260507050031 | 59 | 318 | 5.0 | 9.0 | 0.00 | 0.06 | 0.00 | 88 | 1015.1 |
| 20260507045000 | 59 | 315 | 6.0 | 10.0 | 0.00 | 0.06 | 0.06 | 88 | 1015.2 |
| 20260507044002 | 59 | 340 | 6.0 | 10.0 | 0.00 | 0.06 | 0.06 | 88 | 1014.9 |
| 20260507041820 | 60 | 333 | 4.0 | 7.0 | 0.00 | 0.06 | 0.06 | 89 | 1015.3 |
| 20260507040802 | 60 | 329 | 4.0 | 9.0 | 0.00 | 0.06 | 0.06 | 89 | 1015.2 |
| 20260507034713 | 60 | 320 | 4.0 | 7.0 | 0.00 | 0.06 | 0.06 | 90 | 1014.9 |
| 20260507033722 | 60 | 323 | 4.0 | 8.0 | 0.00 | 0.06 | 0.06 | 90 | 1015.0 |
| 20260507032652 | 60 | 336 | 5.0 | 10.0 | 0.00 | 0.06 | 0.06 | 90 | 1014.7 |
| 20260507031712 | 60 | 316 | 5.0 | 10.0 | 0.00 | 0.06 | 0.06 | 90 | 1014.3 |
| 20260507030704 | 60 | 331 | 4.0 | 8.0 | 0.00 | 0.06 | 0.06 | 90 | 1014.2 |
| 20260507025644 | 60 | 323 | 5.0 | 8.0 | 0.00 | 0.06 | 0.06 | 90 | 1014.4 |
| 20260507024630 | 60 | 295 | 3.0 | 7.0 | 0.00 | 0.06 | 0.06 | 90 | 1014.9 |
| 20260507023616 | 60 | 307 | 4.0 | 6.0 | 0.00 | 0.06 | 0.06 | 91 | 1014.4 |
| 20260507022635 | 60 | 323 | 3.0 | 6.0 | 0.00 | 0.06 | 0.06 | 91 | 1014.4 |
| 20260507021623 | 60 | 323 | 2.0 | 5.0 | 0.00 | 0.06 | 0.06 | 91 | 1014.1 |
| 20260507015437 | 59 | 330 | 2.0 | 5.0 | 0.00 | 0.06 | 0.06 | 90 | 1013.8 |
| 20260507014430 | 60 | 295 | 1.0 | 5.0 | 0.00 | 0.06 | 0.06 | 90 | 1013.6 |
| 20260507013421 | 60 | 302 | 1.0 | 5.0 | 0.00 | 0.06 | 0.06 | 90 | 1013.6 |
| 20260507012439 | 60 | 317 | 2.0 | 5.0 | 0.00 | 0.06 | 0.06 | 89 | 1013.2 |
| 20260507011424 | 60 | 306 | 3.0 | 7.0 | 0.00 | 0.06 | 0.06 | 89 | 1013.2 |
| 20260507010438 | 60 | 342 | 5.0 | 9.0 | 0.00 | 0.06 | 0.06 | 88 | 1013.0 |
| 20260507005453 | 60 | 314 | 5.0 | 9.0 | 0.00 | 0.06 | 0.06 | 88 | 1012.7 |
| 20260507002149 | 60 | 317 | 5.0 | 9.0 | 0.00 | 0.06 | 0.06 | 88 | 1012.5 |
| 20260507001116 | 60 | 332 | 4.0 | 7.0 | 0.00 | 0.06 | 0.06 | 88 | 1012.3 |
| 20260507000123 | 60 | 325 | 5.0 | 10.0 | 0.00 | 0.06 | 0.06 | 88 | 1012.4 |
| 20260506235053 | 60 | 319 | 4.0 | 10.0 | 0.00 | 0.06 | 0.06 | 88 | 1012.1 |
| 20260506232914 | 59 | 306 | 6.0 | 12.0 | 0.00 | 0.06 | 0.06 | 88 | 1012.2 |
| 20260506230745 | 60 | 254 | 5.0 | 9.0 | 0.00 | 0.06 | 0.06 | 88 | 1012.0 |
| 20260506223518 | 60 | 292 | 6.0 | 11.0 | 0.00 | 0.06 | 0.06 | 88 | 1011.5 |
| 20260506222519 | 59 | 313 | 7.0 | 14.0 | 0.00 | 0.06 | 0.06 | 89 | 1011.4 |
| 20260506221542 | 59 | 311 | 6.0 | 14.0 | 0.00 | 0.06 | 0.06 | 89 | 1011.6 |
| 20260506215347 | 59 | 286 | 6.0 | 12.0 | 0.00 | 0.06 | 0.06 | 90 | 1012.1 |
| 20260506214400 | 59 | 309 | 6.0 | 12.0 | 0.00 | 0.06 | 0.06 | 90 | 1011.9 |
| 20260506213424 | 59 | 315 | 6.0 | 10.0 | 0.00 | 0.06 | 0.06 | 91 | 1012.0 |
| 20260506211250 | 58 | 294 | 7.0 | 14.0 | 0.00 | 0.06 | 0.06 | 91 | 1012.3 |
| 20260506210247 | 58 | 309 | 7.0 | 14.0 | 0.00 | 0.06 | 0.06 | 91 | 1012.2 |
| 20260506205251 | 57 | 283 | 7.0 | 14.0 | 0.00 | 0.06 | 0.06 | 91 | 1012.3 |
| 20260506204243 | 58 | 310 | 7.0 | 14.0 | 0.00 | 0.06 | 0.06 | 91 | 1012.2 |
| 20260506203219 | 57 | 306 | 8.0 | 14.0 | 0.00 | 0.06 | 0.06 | 91 | 1012.2 |
| 20260506202226 | 57 | 304 | 7.0 | 14.0 | 0.00 | 0.06 | 0.06 | 91 | 1012.4 |
| 20260506201242 | 57 | 317 | 9.0 | 14.0 | 0.00 | 0.06 | 0.06 | 90 | 1012.6 |
| 20260506200244 | 58 | 300 | 7.0 | 13.0 | 0.00 | 0.06 | 0.06 | 90 | 1012.2 |
| 20260506195226 | 58 | 273 | 7.0 | 13.0 | 0.00 | 0.06 | 0.06 | 91 | 1012.2 |
| 20260506194219 | 58 | 261 | 7.0 | 13.0 | 0.00 | 0.06 | 0.06 | 90 | 1012.2 |
| 20260506193229 | 58 | 305 | 8.0 | 13.0 | 0.00 | 0.06 | 0.06 | 91 | 1012.2 |
| 20260506192218 | 58 | 284 | 8.0 | 14.0 | 0.00 | 0.06 | 0.06 | 90 | 1012.4 |
| 20260506191220 | 58 | 310 | 8.0 | 14.0 | 0.00 | 0.06 | 0.06 | 91 | 1012.2 |
| 20260506190150 | 58 | 289 | 7.0 | 17.0 | 0.00 | 0.06 | 0.06 | 91 | 1012.5 |
| 20260506185131 | 59 | 304 | 8.0 | 17.0 | 0.00 | 0.06 | 0.06 | 91 | 1012.3 |
| 20260506184124 | 60 | 311 | 8.0 | 14.0 | 0.00 | 0.06 | 0.06 | 92 | 1012.0 |
| 20260506183146 | 60 | 263 | 7.0 | 13.0 | 0.00 | 0.06 | 0.06 | 91 | 1012.1 |
| 20260506182120 | 60 | 295 | 7.0 | 13.0 | 0.00 | 0.06 | 0.06 | 92 | 1012.2 |
| 20260506180040 | 61 | 292 | 6.0 | 13.0 | 0.00 | 0.06 | 0.06 | 93 | 1012.0 |
| 20260506175042 | 61 | 288 | 6.0 | 12.0 | 0.00 | 0.06 | 0.06 | 94 | 1011.7 |
| 20260506174013 | 61 | 297 | 6.0 | 10.0 | 0.00 | 0.06 | 0.06 | 93 | 1011.8 |
| 20260506173033 | 62 | 316 | 6.0 | 10.0 | 0.00 | 0.06 | 0.06 | 94 | 1011.6 |
| 20260506172055 | 62 | 322 | 5.0 | 8.0 | 0.00 | 0.06 | 0.06 | 95 | 1011.4 |
| 20260506165924 | 61 | 43 | 4.0 | 10.0 | 0.00 | 0.06 | 0.06 | 97 | 1010.6 |
| 20260506164941 | 60 | 327 | 5.0 | 10.0 | 0.00 | 0.06 | 0.06 | 97 | 1010.7 |
| 20260506163932 | 59 | 351 | 4.0 | 8.0 | 0.00 | 0.06 | 0.06 | 96 | 1011.0 |
| 20260506162858 | 59 | 58 | 5.0 | 10.0 | 0.00 | 0.06 | 0.06 | 97 | 1011.3 |
| 20260506161923 | 58 | 57 | 5.0 | 13.0 | 0.00 | 0.06 | 0.06 | 97 | 1011.4 |
| 20260506160856 | 57 | 328 | 6.0 | 13.0 | 0.00 | 0.06 | 0.06 | 96 | 1011.2 |
| 20260506155832 | 57 | 9 | 5.0 | 10.0 | 0.00 | 0.06 | 0.06 | 96 | 1011.6 |
| 20260506154852 | 57 | 279 | 7.0 | 13.0 | 0.00 | 0.06 | 0.06 | 95 | 1012.4 |
| 20260506153839 | 57 | 322 | 7.0 | 17.0 | 0.06 | 0.06 | 0.06 | 95 | 1012.2 |
| 20260506152843 | 58 | 289 | 9.0 | 17.0 | 0.09 | 0.04 | 0.05 | 95 | 1012.2 |
| 20260506151812 | 60 | 279 | 6.0 | 21.0 | 0.00 | 0.02 | 0.02 | 95 | 1012.8 |
| 20260506150808 | 60 | 261 | 10.0 | 21.0 | 0.00 | 0.02 | 0.02 | 94 | 1013.1 |
| 20260506145758 | 61 | 301 | 9.0 | 18.0 | 0.00 | 0.02 | 0.02 | 95 | 1011.5 |
| 20260506144756 | 62 | 304 | 8.0 | 18.0 | 0.00 | 0.02 | 0.02 | 95 | 1011.1 |
| 20260506143752 | 62 | 337 | 8.0 | 15.0 | 0.00 | 0.02 | 0.02 | 95 | 1010.2 |
| 20260506142810 | 62 | 300 | 8.0 | 18.0 | 0.00 | 0.02 | 0.02 | 95 | 1010.8 |
| 20260506135606 | 64 | 334 | 7.0 | 14.0 | 0.00 | 0.02 | 0.02 | 95 | 1009.7 |
| 20260506133443 | 65 | 332 | 8.0 | 11.0 | 0.00 | 0.02 | 0.02 | 96 | 1009.4 |
| 20260506132419 | 66 | 346 | 7.0 | 11.0 | 0.00 | 0.02 | 0.02 | 96 | 1009.3 |
| 20260506131359 | 67 | 318 | 6.0 | 14.0 | 0.00 | 0.02 | 0.02 | 96 | 1009.2 |
| 20260506130337 | 68 | 304 | 5.0 | 14.0 | 0.00 | 0.02 | 0.02 | 95 | 1008.8 |
| 20260506125341 | 73 | 348 | 0.0 | 3.0 | 0.00 | 0.02 | 0.02 | 97 | 1008.3 |
| 20260506124402 | 72 | 284 | 0.0 | 1.0 | 0.00 | 0.02 | 0.02 | 97 | 1008.2 |
| 20260506123401 | 72 | 284 | 0.0 | 0.0 | 0.00 | 0.01 | 0.01 | 96 | 1008.3 |
| 20260506121252 | 72 | 148 | 0.0 | 1.0 | 0.00 | 0.01 | 0.01 | 96 | 1007.9 |
| 20260506120240 | 72 | 148 | 0.0 | 0.0 | 0.00 | 0.01 | 0.01 | 96 | 1007.8 |
| 20260506115244 | 72 | 148 | 0.0 | 0.0 | 0.00 | 0.01 | 0.01 | 95 | 1007.8 |
| 20260506114239 | 72 | 148 | 0.0 | 0.0 | 0.00 | 0.01 | 0.01 | 96 | 1007.7 |
| 20260506113213 | 73 | 148 | 0.0 | 2.0 | 0.00 | 0.01 | 0.01 | 95 | 1007.8 |
| 20260506111012 | 73 | 148 | 0.0 | 0.0 | 0.00 | 0.01 | 0.01 | 95 | 1008.0 |
| 20260506110037 | 73 | 148 | 0.0 | 2.0 | 0.00 | 0.01 | 0.01 | 95 | 1008.0 |
| 20260506103913 | 74 | 148 | 0.0 | 3.0 | 0.00 | 0.01 | 0.01 | 95 | 1007.8 |
| 20260506102852 | 74 | 148 | 0.0 | 3.0 | 0.00 | 0.01 | 0.01 | 94 | 1007.8 |
| 20260506101858 | 74 | 148 | 0.0 | 1.0 | 0.00 | 0.00 | 0.00 | 94 | 1007.5 |
| 20260506100907 | 74 | 148 | 0.0 | 1.0 | 0.00 | 0.00 | 0.00 | 93 | 1007.6 |
| 20260506095912 | 74 | 148 | 0.0 | 0.0 | 0.00 | 0.00 | 0.00 | 93 | 1007.5 |
| 20260506094912 | 74 | 148 | 0.0 | 1.0 | 0.00 | 0.00 | 0.00 | 93 | 1007.2 |
| 20260506093849 | 74 | 148 | 0.0 | 0.0 | 0.00 | 0.00 | 0.00 | 92 | 1007.2 |
| 20260506092844 | 74 | 148 | 0.0 | 0.0 | 0.00 | 0.00 | 0.00 | 92 | 1007.1 |
| 20260506091828 | 75 | 103 | 1.0 | 4.0 | 0.00 | 0.00 | 0.00 | 92 | 1006.8 |
| 20260506090758 | 75 | 136 | 0.0 | 5.0 | 0.00 | 0.00 | 0.00 | 91 | 1006.8 |
| 20260506083523 | 75 | 138 | 2.0 | 10.0 | 0.00 | 0.00 | 0.00 | 91 | 1006.6 |
| 20260506082449 | 75 | 136 | 3.0 | 9.0 | 0.00 | 0.00 | 0.00 | 91 | 1006.6 |
| 20260506081452 | 75 | 121 | 3.0 | 10.0 | 0.00 | 0.00 | 0.00 | 91 | 1006.6 |
| 20260506080426 | 75 | 150 | 4.0 | 10.0 | 0.00 | 0.00 | 0.00 | 91 | 1006.6 |
| 20260506073400 | 75 | 175 | 5.0 | 10.0 | 0.00 | 0.00 | 0.00 | 91 | 1006.7 |
| 20260506072404 | 75 | 126 | 4.0 | 10.0 | 0.00 | 0.00 | 0.00 | 91 | 1006.9 |
| 20260506071404 | 75 | 149 | 3.0 | 10.0 | 0.00 | 0.00 | 0.00 | 91 | 1007.0 |
| 20260506070411 | 75 | 211 | 4.0 | 11.0 | 0.00 | 0.00 | 0.00 | 91 | 1006.8 |
| 20260506062258 | 75 | 110 | 5.0 | 15.0 | 0.00 | 0.00 | 0.00 | 91 | 1006.5 |
| 20260506061230 | 75 | 94 | 5.0 | 12.0 | 0.00 | 0.00 | 0.00 | 91 | 1006.6 |